Time,TemperatureF,DewpointF,PressureIn,WindDirection,WindDirectionDegrees,WindSpeedMPH,WindSpeedGustMPH,Humidity,HourlyPrecipIn,Conditions,Clouds,dailyrainin,SoftwareType,DateUTC
2013-07-31 00:00:00,65.6,57.3,30.21,SE,135,0.0,0.0,74,0.00,,,0.00,VWS V14.01,2013-07-31 04:00:00,
2013-07-31 00:01:00,65.4,57.1,30.21,SE,135,0.0,0.0,74,0.00,,,0.00,VWS V14.01,2013-07-31 04:01:00,
2013-07-31 00:02:00,65.4,57.1,30.21,SE,135,1.6,1.6,74,0.00,,,0.00,VWS V14.01,2013-07-31 04:02:00,
2013-07-31 00:07:00,65.6,57.7,30.21,NNW,338,0.0,0.0,76,0.00,,,0.00,VWS V14.01,2013-07-31 04:07:00,
2013-07-31 00:12:00,65.6,57.3,30.21,NNW,338,0.0,0.0,74,0.00,,,0.00,VWS V14.01,2013-07-31 04:12:00,
2013-07-31 00:15:00,65.6,57.3,30.21,NNW,338,0.0,0.0,74,0.00,,,0.00,VWS V14.01,2013-07-31 04:15:00,
2013-07-31 00:17:00,65.6,58.0,30.21,South,180,0.0,0.0,76,0.00,,,0.00,VWS V14.01,2013-07-31 04:17:00,
2013-07-31 00:22:00,65.6,57.7,30.21,SSE,158,0.0,0.0,76,0.00,,,0.00,VWS V14.01,2013-07-31 04:22:00,
2013-07-31 00:27:00,65.6,58.0,30.21,SSE,158,0.0,0.0,76,0.00,,,0.00,VWS V14.01,2013-07-31 04:27:00,
2013-07-31 00:30:00,65.6,58.0,30.21,SSW,202,0.0,0.0,76,0.00,,,0.00,VWS V14.01,2013-07-31 04:30:00,
2013-07-31 00:32:00,65.6,58.0,30.21,SSE,158,0.0,0.0,76,0.00,,,0.00,VWS V14.01,2013-07-31 04:32:00,
2013-07-31 00:37:00,65.6,58.4,30.21,SSE,158,0.0,0.0,78,0.00,,,0.00,VWS V14.01,2013-07-31 04:37:00,
2013-07-31 00:42:00,65.6,58.0,30.21,SE,135,0.0,0.0,76,0.00,,,0.00,VWS V14.01,2013-07-31 04:42:00,
2013-07-31 00:45:00,65.6,58.0,30.21,South,180,0.0,0.0,76,0.00,,,0.00,VWS V14.01,2013-07-31 04:45:00,
2013-07-31 00:47:00,65.6,58.0,30.21,South,180,0.0,0.0,76,0.00,,,0.00,VWS V14.01,2013-07-31 04:47:00,
2013-07-31 00:52:00,65.6,58.7,30.18,SSW,202,0.0,0.0,78,0.00,,,0.00,VWS V14.01,2013-07-31 04:52:00,
2013-07-31 00:57:00,65.8,59.3,30.18,WNW,292,2.0,2.0,80,0.00,,,0.00,VWS V14.01,2013-07-31 04:57:00,
2013-07-31 01:00:00,65.8,59.3,30.18,NNW,338,0.0,0.0,80,0.00,,,0.00,VWS V14.01,2013-07-31 05:00:00,
2013-07-31 01:02:00,65.8,59.3,30.18,WNW,292,0.0,0.0,80,0.00,,,0.00,VWS V14.01,2013-07-31 05:02:00,
2013-07-31 01:07:00,65.9,59.4,30.18,SW,225,0.0,0.0,80,0.00,,,0.00,VWS V14.01,2013-07-31 05:07:00,
2013-07-31 01:12:00,65.9,59.4,30.18,WNW,292,0.0,0.0,80,0.00,,,0.00,VWS V14.01,2013-07-31 05:12:00,
2013-07-31 01:15:00,65.9,59.4,30.18,SE,135,0.9,0.9,80,0.00,,,0.00,VWS V14.01,2013-07-31 05:15:00,
2013-07-31 01:17:00,65.9,59.4,30.18,North,0,0.0,0.0,80,0.00,,,0.00,VWS V14.01,2013-07-31 05:17:00,
2013-07-31 01:22:00,65.9,59.4,30.18,SSW,202,0.0,0.0,80,0.00,,,0.00,VWS V14.01,2013-07-31 05:22:00,
2013-07-31 01:27:00,65.9,59.8,30.18,WNW,292,0.0,0.0,80,0.00,,,0.00,VWS V14.01,2013-07-31 05:27:00,
2013-07-31 01:30:00,65.9,60.1,30.18,SE,135,2.9,2.9,82,0.00,,,0.00,VWS V14.01,2013-07-31 05:30:00,
2013-07-31 01:32:00,65.9,60.1,30.18,NW,315,1.6,1.6,82,0.00,,,0.00,VWS V14.01,2013-07-31 05:32:00,
2013-07-31 01:37:00,66.1,60.3,30.18,SSE,158,0.0,0.0,82,0.00,,,0.00,VWS V14.01,2013-07-31 05:37:00,
2013-07-31 01:42:00,66.1,60.3,30.18,West,270,0.0,0.0,82,0.00,,,0.00,VWS V14.01,2013-07-31 05:42:00,
2013-07-31 01:45:00,66.1,60.3,30.18,SSW,202,0.0,0.0,82,0.00,,,0.00,VWS V14.01,2013-07-31 05:45:00,
2013-07-31 01:47:00,66.1,60.7,30.18,WSW,248,0.0,0.0,82,0.00,,,0.00,VWS V14.01,2013-07-31 05:47:00,
2013-07-31 01:52:00,66.3,60.8,30.18,SSE,158,0.0,0.0,82,0.00,,,0.00,VWS V14.01,2013-07-31 05:52:00,
2013-07-31 01:57:00,66.1,60.7,30.18,SSW,202,0.0,0.0,82,0.00,,,0.00,VWS V14.01,2013-07-31 05:57:00,
2013-07-31 02:00:00,66.1,60.7,30.18,SSW,202,0.0,0.0,82,0.00,,,0.00,VWS V14.01,2013-07-31 06:00:00,
2013-07-31 02:02:00,66.3,60.8,30.18,SSW,202,0.0,0.0,82,0.00,,,0.00,VWS V14.01,2013-07-31 06:02:00,
2013-07-31 02:07:00,66.5,61.3,30.18,SSE,158,2.0,2.0,84,0.00,,,0.00,VWS V14.01,2013-07-31 06:07:00,
2013-07-31 02:12:00,66.3,60.5,30.18,South,180,0.0,0.0,82,0.00,,,0.00,VWS V14.01,2013-07-31 06:12:00,
2013-07-31 02:15:00,66.3,60.5,30.18,SSE,158,0.0,0.0,82,0.00,,,0.00,VWS V14.01,2013-07-31 06:15:00,
2013-07-31 02:17:00,66.3,60.5,30.18,WNW,292,1.1,1.1,82,0.00,,,0.00,VWS V14.01,2013-07-31 06:17:00,
2013-07-31 02:22:00,66.3,60.1,30.18,WNW,292,2.0,2.0,80,0.00,,,0.00,VWS V14.01,2013-07-31 06:22:00,
2013-07-31 02:27:00,66.3,60.5,30.18,WNW,292,0.0,0.0,82,0.00,,,0.00,VWS V14.01,2013-07-31 06:27:00,
2013-07-31 02:30:00,66.3,60.5,30.18,SSW,202,0.0,0.0,82,0.00,,,0.00,VWS V14.01,2013-07-31 06:30:00,
2013-07-31 02:32:00,66.3,61.2,30.18,NNW,338,0.0,0.0,84,0.00,,,0.00,VWS V14.01,2013-07-31 06:32:00,
2013-07-31 02:37:00,66.3,61.2,30.15,NNW,338,2.7,2.7,84,0.00,,,0.00,VWS V14.01,2013-07-31 06:37:00,
2013-07-31 02:42:00,66.3,61.8,30.15,NNW,338,0.0,0.0,86,0.00,,,0.00,VWS V14.01,2013-07-31 06:42:00,
2013-07-31 02:45:00,66.3,61.8,30.15,SE,135,0.0,0.0,86,0.00,,,0.00,VWS V14.01,2013-07-31 06:45:00,
2013-07-31 02:47:00,66.5,62.3,30.15,NNW,338,0.0,0.0,86,0.00,,,0.00,VWS V14.01,2013-07-31 06:47:00,
2013-07-31 02:52:00,66.3,62.2,30.18,NNE,22,0.0,0.0,86,0.00,,,0.00,VWS V14.01,2013-07-31 06:52:00,
2013-07-31 02:57:00,66.7,62.2,30.18,NNW,338,0.0,0.0,86,0.00,,,0.00,VWS V14.01,2013-07-31 06:57:00,
2013-07-31 03:00:00,66.8,62.4,30.18,South,180,0.0,0.0,86,0.00,,,0.00,VWS V14.01,2013-07-31 07:00:00,
2013-07-31 03:02:00,66.8,62.0,30.18,East,90,0.0,0.0,84,0.00,,,0.00,VWS V14.01,2013-07-31 07:02:00,
2013-07-31 03:07:00,66.7,61.9,30.15,SSW,202,0.0,0.0,84,0.00,,,0.00,VWS V14.01,2013-07-31 07:07:00,
2013-07-31 03:12:00,66.7,61.9,30.15,SSW,202,0.0,0.0,84,0.00,,,0.00,VWS V14.01,2013-07-31 07:12:00,
2013-07-31 03:15:00,66.8,62.4,30.15,NNW,338,3.4,3.4,86,0.00,,,0.00,VWS V14.01,2013-07-31 07:15:00,
2013-07-31 03:17:00,66.8,62.7,30.15,WNW,292,0.0,0.0,86,0.00,,,0.00,VWS V14.01,2013-07-31 07:17:00,
2013-07-31 03:22:00,66.8,62.4,30.15,NNW,338,0.0,0.0,86,0.00,,,0.00,VWS V14.01,2013-07-31 07:22:00,
2013-07-31 03:27:00,66.8,62.0,30.15,NNE,22,0.0,0.0,84,0.00,,,0.00,VWS V14.01,2013-07-31 07:27:00,
2013-07-31 03:30:00,66.8,62.0,30.15,NNE,22,0.0,0.0,84,0.00,,,0.00,VWS V14.01,2013-07-31 07:30:00,
2013-07-31 03:32:00,66.8,62.0,30.15,NNE,22,0.0,0.0,84,0.00,,,0.00,VWS V14.01,2013-07-31 07:32:00,
2013-07-31 03:37:00,66.8,62.4,30.15,SE,135,1.3,1.3,86,0.00,,,0.00,VWS V14.01,2013-07-31 07:37:00,
2013-07-31 03:42:00,66.8,62.4,30.15,WSW,248,0.0,0.0,86,0.00,,,0.00,VWS V14.01,2013-07-31 07:42:00,
2013-07-31 03:47:00,66.8,62.7,30.15,South,180,0.0,0.0,86,0.00,,,0.00,VWS V14.01,2013-07-31 07:47:00,
2013-07-31 03:52:00,66.8,62.4,30.15,SSW,202,0.0,0.0,86,0.00,,,0.00,VWS V14.01,2013-07-31 07:52:00,
2013-07-31 03:57:00,66.8,62.7,30.15,SSW,202,0.0,0.0,86,0.00,,,0.00,VWS V14.01,2013-07-31 07:57:00,
2013-07-31 04:00:00,67.0,63.8,30.15,WNW,292,0.0,0.0,90,0.00,,,0.00,VWS V14.01,2013-07-31 08:00:00,
2013-07-31 04:02:00,67.0,63.8,30.15,NNW,338,1.1,1.1,90,0.00,,,0.00,VWS V14.01,2013-07-31 08:02:00,
2013-07-31 04:07:00,67.2,63.0,30.15,South,180,0.0,0.0,86,0.00,,,0.00,VWS V14.01,2013-07-31 08:07:00,
2013-07-31 04:12:00,67.0,62.5,30.15,SW,225,0.0,0.0,86,0.00,,,0.00,VWS V14.01,2013-07-31 08:12:00,
2013-07-31 04:15:00,67.0,62.2,30.15,NNW,338,2.2,2.2,84,0.00,,,0.00,VWS V14.01,2013-07-31 08:15:00,
2013-07-31 04:17:00,67.0,62.5,30.15,SSW,202,0.0,0.0,86,0.00,,,0.00,VWS V14.01,2013-07-31 08:17:00,
2013-07-31 04:22:00,67.0,62.2,30.15,SW,225,0.0,0.0,84,0.00,,,0.00,VWS V14.01,2013-07-31 08:22:00,
2013-07-31 04:27:00,67.0,63.2,30.15,West,270,0.0,0.0,88,0.00,,,0.00,VWS V14.01,2013-07-31 08:27:00,
2013-07-31 04:30:00,66.8,62.7,30.15,SE,135,2.5,2.5,86,0.00,,,0.00,VWS V14.01,2013-07-31 08:30:00,
2013-07-31 04:32:00,66.8,62.7,30.15,WNW,292,2.5,2.5,86,0.00,,,0.00,VWS V14.01,2013-07-31 08:32:00,
2013-07-31 04:37:00,66.8,63.3,30.15,SSW,202,0.0,0.0,88,0.00,,,0.00,VWS V14.01,2013-07-31 08:37:00,
2013-07-31 04:42:00,66.8,63.3,30.15,South,180,0.0,0.0,88,0.00,,,0.00,VWS V14.01,2013-07-31 08:42:00,
2013-07-31 04:45:00,66.8,63.3,30.15,NNW,338,0.0,0.0,88,0.00,,,0.00,VWS V14.01,2013-07-31 08:45:00,
2013-07-31 04:47:00,66.8,63.3,30.15,South,180,0.0,0.0,88,0.00,,,0.00,VWS V14.01,2013-07-31 08:47:00,
2013-07-31 04:52:00,66.8,63.3,30.15,West,270,0.0,0.0,88,0.00,,,0.00,VWS V14.01,2013-07-31 08:52:00,
2013-07-31 04:57:00,66.8,63.3,30.15,SW,225,0.0,0.0,88,0.00,,,0.00,VWS V14.01,2013-07-31 08:57:00,
2013-07-31 05:00:00,66.7,63.5,30.15,SSW,202,0.0,0.0,90,0.00,,,0.00,VWS V14.01,2013-07-31 09:00:00,
2013-07-31 05:02:00,66.7,63.5,30.15,West,270,0.0,0.0,90,0.00,,,0.00,VWS V14.01,2013-07-31 09:02:00,
2013-07-31 05:07:00,66.7,63.5,30.15,SSW,202,0.0,0.0,90,0.00,,,0.00,VWS V14.01,2013-07-31 09:07:00,
2013-07-31 05:12:00,66.7,63.8,30.15,NNE,22,0.0,0.0,90,0.00,,,0.00,VWS V14.01,2013-07-31 09:12:00,
2013-07-31 05:15:00,66.7,63.8,30.15,WNW,292,0.0,0.0,90,0.00,,,0.00,VWS V14.01,2013-07-31 09:15:00,
2013-07-31 05:17:00,66.7,63.8,30.15,NNW,338,0.0,0.0,90,0.00,,,0.00,VWS V14.01,2013-07-31 09:17:00,
2013-07-31 05:22:00,66.7,64.4,30.15,North,0,2.7,2.7,92,0.00,,,0.00,VWS V14.01,2013-07-31 09:22:00,
2013-07-31 05:27:00,66.7,64.7,30.15,NNW,338,0.0,0.0,94,0.00,,,0.00,VWS V14.01,2013-07-31 09:27:00,
2013-07-31 05:32:00,66.7,64.7,30.15,North,0,0.0,0.0,94,0.00,,,0.00,VWS V14.01,2013-07-31 09:32:00,
2013-07-31 05:37:00,66.5,64.3,30.15,North,0,0.0,0.0,92,0.00,,,0.00,VWS V14.01,2013-07-31 09:37:00,
2013-07-31 05:42:00,66.5,64.3,30.15,NW,315,0.0,0.0,92,0.00,,,0.00,VWS V14.01,2013-07-31 09:42:00,
2013-07-31 05:45:00,66.5,64.3,30.15,NW,315,0.0,0.0,92,0.00,,,0.00,VWS V14.01,2013-07-31 09:45:00,
2013-07-31 05:47:00,66.7,64.4,30.15,NW,315,0.0,0.0,92,0.00,,,0.00,VWS V14.01,2013-07-31 09:47:00,
2013-07-31 05:52:00,66.5,64.6,30.15,WSW,248,0.0,0.0,94,0.00,,,0.00,VWS V14.01,2013-07-31 09:52:00,
2013-07-31 05:57:00,66.5,64.6,30.15,WSW,248,0.0,0.0,94,0.00,,,0.00,VWS V14.01,2013-07-31 09:57:00,
2013-07-31 06:00:00,66.5,64.3,30.15,WSW,248,0.0,0.0,92,0.00,,,0.00,VWS V14.01,2013-07-31 10:00:00,
2013-07-31 06:02:00,66.5,64.3,30.15,WSW,248,0.0,0.0,92,0.00,,,0.00,VWS V14.01,2013-07-31 10:02:00,
2013-07-31 06:07:00,66.5,64.3,30.18,South,180,1.3,1.3,92,0.00,,,0.00,VWS V14.01,2013-07-31 10:07:00,
2013-07-31 06:12:00,66.3,64.1,30.18,South,180,0.0,0.0,92,0.00,,,0.00,VWS V14.01,2013-07-31 10:12:00,
2013-07-31 06:17:00,66.3,64.4,30.18,South,180,0.0,0.0,94,0.00,,,0.00,VWS V14.01,2013-07-31 10:17:00,
2013-07-31 06:22:00,66.3,64.4,30.15,South,180,0.0,0.0,94,0.00,,,0.00,VWS V14.01,2013-07-31 10:22:00,
2013-07-31 06:27:00,66.3,64.7,30.15,West,270,0.0,0.0,94,0.00,,,0.00,VWS V14.01,2013-07-31 10:27:00,
2013-07-31 06:30:00,66.3,64.7,30.15,South,180,0.0,0.0,94,0.00,,,0.00,VWS V14.01,2013-07-31 10:30:00,
2013-07-31 06:32:00,66.1,64.2,30.15,South,180,0.0,0.0,94,0.00,,,0.00,VWS V14.01,2013-07-31 10:32:00,
2013-07-31 06:37:00,66.1,63.9,30.18,SSW,202,0.0,0.0,92,0.00,,,0.00,VWS V14.01,2013-07-31 10:37:00,
2013-07-31 06:42:00,66.1,64.2,30.18,SSW,202,0.0,0.0,94,0.00,,,0.00,VWS V14.01,2013-07-31 10:42:00,
2013-07-31 06:45:00,66.1,64.2,30.18,SSW,202,0.0,0.0,94,0.00,,,0.00,VWS V14.01,2013-07-31 10:45:00,
2013-07-31 06:47:00,66.1,64.2,30.18,SSW,202,0.0,0.0,94,0.00,,,0.00,VWS V14.01,2013-07-31 10:47:00,
2013-07-31 06:52:00,66.1,64.2,30.18,South,180,0.0,0.0,94,0.00,,,0.00,VWS V14.01,2013-07-31 10:52:00,
2013-07-31 06:57:00,66.1,64.5,30.18,WNW,292,0.0,0.0,94,0.00,,,0.00,VWS V14.01,2013-07-31 10:57:00,
2013-07-31 07:00:00,66.1,64.5,30.18,WNW,292,0.0,0.0,94,0.00,,,0.00,VWS V14.01,2013-07-31 11:00:00,
2013-07-31 07:02:00,66.3,65.3,30.18,WNW,292,0.0,0.0,96,0.00,,,0.00,VWS V14.01,2013-07-31 11:02:00,
2013-07-31 07:07:00,66.3,65.3,30.18,WNW,292,0.0,0.0,96,0.00,,,0.00,VWS V14.01,2013-07-31 11:07:00,
2013-07-31 07:12:00,66.1,64.8,30.18,WNW,292,0.0,0.0,96,0.00,,,0.00,VWS V14.01,2013-07-31 11:12:00,
2013-07-31 07:15:00,66.1,64.8,30.18,WNW,292,0.0,0.0,96,0.00,,,0.00,VWS V14.01,2013-07-31 11:15:00,
2013-07-31 07:17:00,66.1,64.8,30.18,WNW,292,0.0,0.0,96,0.00,,,0.00,VWS V14.01,2013-07-31 11:17:00,
2013-07-31 07:22:00,66.3,65.0,30.18,SSE,158,0.0,0.0,96,0.00,,,0.00,VWS V14.01,2013-07-31 11:22:00,
2013-07-31 07:27:00,66.3,65.3,30.18,SSW,202,0.0,0.0,96,0.00,,,0.00,VWS V14.01,2013-07-31 11:27:00,
2013-07-31 07:30:00,66.5,65.5,30.18,SSW,202,0.0,0.0,96,0.00,,,0.00,VWS V14.01,2013-07-31 11:30:00,
2013-07-31 07:32:00,66.5,65.5,30.18,SSW,202,0.0,0.0,96,0.00,,,0.00,VWS V14.01,2013-07-31 11:32:00,
2013-07-31 07:37:00,66.7,65.9,30.18,SSW,202,0.0,0.0,98,0.00,,,0.00,VWS V14.01,2013-07-31 11:37:00,
2013-07-31 07:42:00,66.7,65.7,30.18,South,180,0.0,0.0,96,0.00,,,0.00,VWS V14.01,2013-07-31 11:42:00,
2013-07-31 07:45:00,66.7,65.9,30.18,SSW,202,0.0,0.0,98,0.00,,,0.00,VWS V14.01,2013-07-31 11:45:00,
2013-07-31 07:47:00,66.8,66.1,30.18,SSW,202,0.0,0.0,98,0.00,,,0.00,VWS V14.01,2013-07-31 11:47:00,
2013-07-31 07:52:00,66.7,65.9,30.21,SSW,202,0.0,0.0,98,0.00,,,0.00,VWS V14.01,2013-07-31 11:52:00,
2013-07-31 07:57:00,66.7,65.9,30.21,SSW,202,0.0,0.0,98,0.00,,,0.00,VWS V14.01,2013-07-31 11:57:00,
2013-07-31 08:00:00,66.7,65.9,30.21,SSW,202,0.0,0.0,98,0.00,,,0.00,VWS V14.01,2013-07-31 12:00:00,
2013-07-31 08:02:00,66.7,65.9,30.21,SSW,202,0.0,0.0,98,0.00,,,0.00,VWS V14.01,2013-07-31 12:02:00,
2013-07-31 08:07:00,66.8,66.4,30.18,WSW,248,0.9,0.9,98,0.00,,,0.00,VWS V14.01,2013-07-31 12:07:00,
2013-07-31 08:12:00,66.8,66.9,30.18,West,270,0.0,0.0,100,0.00,,,0.00,VWS V14.01,2013-07-31 12:12:00,
2013-07-31 08:15:00,66.8,66.9,30.18,West,270,1.1,1.1,100,0.00,,,0.00,VWS V14.01,2013-07-31 12:15:00,
2013-07-31 08:17:00,66.8,66.9,30.18,WSW,248,0.0,0.0,100,0.04,,,0.04,VWS V14.01,2013-07-31 12:17:00,
2013-07-31 08:22:00,66.8,66.9,30.18,WSW,248,0.0,0.0,100,0.04,,,0.04,VWS V14.01,2013-07-31 12:22:00,
2013-07-31 08:27:00,66.8,66.9,30.18,WSW,248,0.0,0.0,100,0.04,,,0.04,VWS V14.01,2013-07-31 12:27:00,
2013-07-31 08:32:00,66.8,66.9,30.18,WNW,292,1.6,1.6,100,0.04,,,0.04,VWS V14.01,2013-07-31 12:32:00,
2013-07-31 08:37:00,66.7,66.7,30.18,NW,315,0.0,0.0,100,0.04,,,0.04,VWS V14.01,2013-07-31 12:37:00,
2013-07-31 08:42:00,66.7,66.7,30.18,West,270,2.0,2.0,100,0.04,,,0.04,VWS V14.01,2013-07-31 12:42:00,
2013-07-31 08:45:00,66.7,66.7,30.18,West,270,0.0,0.0,100,0.04,,,0.04,VWS V14.01,2013-07-31 12:45:00,
2013-07-31 08:47:00,66.5,66.5,30.18,NNE,22,2.0,2.0,100,0.04,,,0.04,VWS V14.01,2013-07-31 12:47:00,
2013-07-31 08:52:00,66.7,66.7,30.21,SW,225,0.0,0.0,100,0.04,,,0.04,VWS V14.01,2013-07-31 12:52:00,
2013-07-31 08:57:00,66.7,66.7,30.21,West,270,0.0,0.0,100,0.04,,,0.04,VWS V14.01,2013-07-31 12:57:00,
2013-07-31 09:00:00,66.7,66.7,30.21,WSW,248,0.0,0.0,100,0.04,,,0.04,VWS V14.01,2013-07-31 13:00:00,
2013-07-31 09:02:00,66.7,66.7,30.21,WNW,292,0.0,0.0,100,0.04,,,0.04,VWS V14.01,2013-07-31 13:02:00,
2013-07-31 09:07:00,66.7,66.7,30.21,WNW,292,0.0,0.0,100,0.04,,,0.04,VWS V14.01,2013-07-31 13:07:00,
2013-07-31 09:12:00,66.5,66.5,30.21,WNW,292,0.0,0.0,100,0.04,,,0.04,VWS V14.01,2013-07-31 13:12:00,
2013-07-31 09:15:00,66.3,66.2,30.21,West,270,0.0,0.0,100,0.04,,,0.04,VWS V14.01,2013-07-31 13:15:00,
2013-07-31 09:17:00,66.3,66.2,30.21,South,180,0.0,0.0,100,0.04,,,0.04,VWS V14.01,2013-07-31 13:17:00,
2013-07-31 09:22:00,66.5,66.3,30.21,East,90,0.0,0.0,100,0.04,,,0.04,VWS V14.01,2013-07-31 13:22:00,
2013-07-31 09:27:00,66.3,65.9,30.21,SSE,158,0.0,0.0,98,0.04,,,0.04,VWS V14.01,2013-07-31 13:27:00,
2013-07-31 09:30:00,66.3,65.6,30.21,SSW,202,0.0,0.0,98,0.04,,,0.04,VWS V14.01,2013-07-31 13:30:00,
2013-07-31 09:32:00,66.5,66.1,30.21,SSW,202,0.0,0.0,98,0.00,,,0.04,VWS V14.01,2013-07-31 13:32:00,
2013-07-31 09:37:00,66.8,66.9,30.18,SSW,202,0.0,0.0,100,0.00,,,0.04,VWS V14.01,2013-07-31 13:37:00,
2013-07-31 09:42:00,67.0,67.0,30.18,West,270,0.0,0.0,100,0.00,,,0.04,VWS V14.01,2013-07-31 13:42:00,
2013-07-31 09:45:00,66.8,66.7,30.18,WNW,292,0.0,0.0,100,0.00,,,0.04,VWS V14.01,2013-07-31 13:45:00,
2013-07-31 09:47:00,67.0,66.9,30.18,WNW,292,0.0,0.0,100,0.00,,,0.04,VWS V14.01,2013-07-31 13:47:00,
2013-07-31 09:52:00,66.8,66.4,30.18,West,270,0.0,0.0,98,0.00,,,0.04,VWS V14.01,2013-07-31 13:52:00,
2013-07-31 09:57:00,67.0,66.6,30.18,WSW,248,0.0,0.0,98,0.00,,,0.04,VWS V14.01,2013-07-31 13:57:00,
2013-07-31 10:00:00,67.0,66.0,30.18,NW,315,0.0,0.0,96,0.00,,,0.04,VWS V14.01,2013-07-31 14:00:00,
2013-07-31 10:02:00,67.0,65.7,30.18,NW,315,0.0,0.0,96,0.00,,,0.04,VWS V14.01,2013-07-31 14:02:00,
2013-07-31 10:07:00,67.0,66.0,30.18,NW,315,0.0,0.0,96,0.00,,,0.04,VWS V14.01,2013-07-31 14:07:00,
2013-07-31 10:12:00,67.2,65.9,30.18,NW,315,0.0,0.0,96,0.00,,,0.04,VWS V14.01,2013-07-31 14:12:00,
2013-07-31 10:15:00,67.2,65.9,30.18,NW,315,0.0,0.0,96,0.00,,,0.04,VWS V14.01,2013-07-31 14:15:00,
2013-07-31 10:17:00,67.4,66.4,30.18,NW,315,0.0,0.0,96,0.00,,,0.04,VWS V14.01,2013-07-31 14:17:00,
2013-07-31 10:22:00,67.6,66.6,30.18,NW,315,0.0,0.0,96,0.00,,,0.04,VWS V14.01,2013-07-31 14:22:00,
2013-07-31 10:27:00,67.6,66.6,30.18,NNW,338,0.0,0.0,96,0.00,,,0.04,VWS V14.01,2013-07-31 14:27:00,
2013-07-31 10:30:00,67.6,66.2,30.18,WNW,292,0.0,0.0,96,0.00,,,0.04,VWS V14.01,2013-07-31 14:30:00,
2013-07-31 10:32:00,67.6,65.9,30.18,WNW,292,0.0,0.0,94,0.00,,,0.04,VWS V14.01,2013-07-31 14:32:00,
2013-07-31 10:37:00,67.9,66.3,30.18,NNW,338,0.0,0.0,94,0.00,,,0.04,VWS V14.01,2013-07-31 14:37:00,
2013-07-31 10:42:00,68.3,67.0,30.18,NNW,338,0.0,0.0,96,0.00,,,0.04,VWS V14.01,2013-07-31 14:42:00,
2013-07-31 10:47:00,68.3,63.1,30.18,SE,135,1.1,1.1,84,0.00,,,0.04,VWS V14.01,2013-07-31 14:47:00,
2013-07-31 10:52:00,68.5,61.5,30.18,SE,135,0.0,0.0,78,0.00,,,0.04,VWS V14.01,2013-07-31 14:52:00,
2013-07-31 10:57:00,69.2,62.2,30.18,NW,315,1.3,1.3,78,0.00,,,0.04,VWS V14.01,2013-07-31 14:57:00,
2013-07-31 11:02:00,69.6,58.3,30.18,NNW,338,1.1,1.1,68,0.00,,,0.04,VWS V14.01,2013-07-31 15:02:00,
2013-07-31 11:07:00,70.3,59.0,30.15,NE,45,0.0,0.0,68,0.00,,,0.04,VWS V14.01,2013-07-31 15:07:00,
2013-07-31 11:12:00,70.3,58.6,30.15,NNW,338,0.0,0.0,66,0.00,,,0.04,VWS V14.01,2013-07-31 15:12:00,
2013-07-31 11:15:00,70.4,58.8,30.15,NW,315,0.0,0.0,66,0.00,,,0.04,VWS V14.01,2013-07-31 15:15:00,
2013-07-31 11:17:00,70.6,59.8,30.15,NW,315,0.0,0.0,68,0.00,,,0.04,VWS V14.01,2013-07-31 15:17:00,
2013-07-31 11:22:00,70.8,58.3,30.15,WSW,248,0.0,0.0,64,0.00,,,0.04,VWS V14.01,2013-07-31 15:22:00,
2013-07-31 11:27:00,70.8,59.1,30.15,South,180,0.0,0.0,66,0.00,,,0.04,VWS V14.01,2013-07-31 15:27:00,
2013-07-31 11:30:00,71.0,59.7,30.15,SSW,202,0.0,0.0,68,0.00,,,0.04,VWS V14.01,2013-07-31 15:30:00,
2013-07-31 11:32:00,71.2,61.1,30.15,NNE,22,1.1,1.1,70,0.00,,,0.04,VWS V14.01,2013-07-31 15:32:00,
2013-07-31 11:37:00,71.3,57.9,30.15,NNW,338,2.5,2.5,62,0.00,,,0.04,VWS V14.01,2013-07-31 15:37:00,
2013-07-31 11:42:00,72.2,59.6,30.15,East,90,0.0,0.0,64,0.00,,,0.04,VWS V14.01,2013-07-31 15:42:00,
2013-07-31 11:45:00,72.4,58.9,30.15,ESE,112,1.1,1.1,62,0.00,,,0.04,VWS V14.01,2013-07-31 15:45:00,
2013-07-31 11:47:00,72.4,58.0,30.15,SE,135,1.1,1.1,60,0.00,,,0.04,VWS V14.01,2013-07-31 15:47:00,
2013-07-31 11:52:00,72.8,57.9,30.12,SSE,158,0.0,0.0,60,0.00,,,0.04,VWS V14.01,2013-07-31 15:52:00,
2013-07-31 11:57:00,73.0,59.0,30.12,NNW,338,0.0,0.0,62,0.00,,,0.04,VWS V14.01,2013-07-31 15:57:00,
2013-07-31 12:00:00,73.0,59.0,30.12,NNW,338,2.0,2.0,62,0.00,,,0.04,VWS V14.01,2013-07-31 16:00:00,
2013-07-31 12:02:00,72.8,56.5,30.12,WNW,292,0.0,0.0,56,0.00,,,0.04,VWS V14.01,2013-07-31 16:02:00,
2013-07-31 12:07:00,73.7,57.8,30.15,WNW,292,0.0,0.0,58,0.00,,,0.04,VWS V14.01,2013-07-31 16:07:00,
2013-07-31 12:12:00,74.2,57.8,30.15,NW,315,1.1,1.1,56,0.00,,,0.04,VWS V14.01,2013-07-31 16:12:00,
2013-07-31 12:15:00,74.2,56.8,30.15,WNW,292,0.0,0.0,54,0.00,,,0.04,VWS V14.01,2013-07-31 16:15:00,
2013-07-31 12:17:00,74.4,56.4,30.15,SE,135,2.0,2.0,54,0.00,,,0.04,VWS V14.01,2013-07-31 16:17:00,
2013-07-31 12:22:00,74.4,57.0,30.15,South,180,2.0,2.0,54,0.00,,,0.04,VWS V14.01,2013-07-31 16:22:00,
2013-07-31 12:27:00,74.2,57.8,30.15,SSE,158,2.5,2.5,56,0.00,,,0.04,VWS V14.01,2013-07-31 16:27:00,
2013-07-31 12:30:00,74.1,56.6,30.15,South,180,0.0,0.0,54,0.00,,,0.04,VWS V14.01,2013-07-31 16:30:00,
2013-07-31 12:32:00,74.2,56.8,30.15,WNW,292,1.1,1.1,54,0.00,,,0.04,VWS V14.01,2013-07-31 16:32:00,
2013-07-31 12:37:00,74.2,58.3,30.15,NW,315,0.0,0.0,58,0.00,,,0.04,VWS V14.01,2013-07-31 16:37:00,
2013-07-31 12:42:00,73.9,55.4,30.15,ESE,112,1.3,1.3,52,0.00,,,0.04,VWS V14.01,2013-07-31 16:42:00,
2013-07-31 12:45:00,73.7,56.8,30.15,WNW,292,0.9,0.9,56,0.00,,,0.04,VWS V14.01,2013-07-31 16:45:00,
2013-07-31 12:47:00,73.5,56.6,30.15,NNW,338,2.5,2.5,56,0.00,,,0.04,VWS V14.01,2013-07-31 16:47:00,
2013-07-31 12:52:00,73.7,59.2,30.12,WNW,292,0.0,0.0,60,0.00,,,0.04,VWS V14.01,2013-07-31 16:52:00,
2013-07-31 12:57:00,73.7,60.1,30.12,West,270,0.0,0.0,62,0.00,,,0.04,VWS V14.01,2013-07-31 16:57:00,
2013-07-31 13:00:00,73.5,59.0,30.12,NW,315,0.0,0.0,60,0.00,,,0.04,VWS V14.01,2013-07-31 17:00:00,
2013-07-31 13:02:00,73.5,59.0,30.15,NW,315,0.0,0.0,60,0.00,,,0.04,VWS V14.01,2013-07-31 17:02:00,
2013-07-31 13:07:00,73.5,59.0,30.15,SSE,158,0.0,0.0,60,0.00,,,0.04,VWS V14.01,2013-07-31 17:07:00,
2013-07-31 13:12:00,74.2,58.8,30.15,NNE,22,0.0,0.0,58,0.00,,,0.04,VWS V14.01,2013-07-31 17:12:00,
2013-07-31 13:15:00,74.4,56.4,30.15,SSE,158,0.0,0.0,54,0.00,,,0.04,VWS V14.01,2013-07-31 17:15:00,
2013-07-31 13:17:00,74.8,55.7,30.15,SSE,158,3.1,3.1,52,0.00,,,0.04,VWS V14.01,2013-07-31 17:17:00,
2013-07-31 13:22:00,75.1,57.1,30.15,SSW,202,0.0,0.0,54,0.00,,,0.04,VWS V14.01,2013-07-31 17:22:00,
2013-07-31 13:27:00,75.1,56.1,30.15,South,180,0.0,0.0,52,0.00,,,0.04,VWS V14.01,2013-07-31 17:27:00,
2013-07-31 13:30:00,74.9,55.3,30.15,SE,135,1.3,1.3,50,0.00,,,0.04,VWS V14.01,2013-07-31 17:30:00,
2013-07-31 13:32:00,74.9,56.4,30.15,NNW,338,0.0,0.0,52,0.00,,,0.04,VWS V14.01,2013-07-31 17:32:00,
2013-07-31 13:37:00,74.8,57.3,30.15,WNW,292,0.0,0.0,54,0.00,,,0.04,VWS V14.01,2013-07-31 17:37:00,
2013-07-31 13:42:00,74.2,56.8,30.15,SE,135,0.0,0.0,54,0.00,,,0.04,VWS V14.01,2013-07-31 17:42:00,
2013-07-31 13:45:00,73.9,55.9,30.15,ENE,68,0.0,0.0,54,0.00,,,0.04,VWS V14.01,2013-07-31 17:45:00,
2013-07-31 13:47:00,73.5,55.1,30.15,North,0,1.6,1.6,52,0.00,,,0.04,VWS V14.01,2013-07-31 17:47:00,
2013-07-31 13:52:00,73.2,55.8,30.15,WNW,292,0.0,0.0,54,0.00,,,0.04,VWS V14.01,2013-07-31 17:52:00,
2013-07-31 13:57:00,72.6,55.8,30.15,NNW,338,2.7,2.7,56,0.00,,,0.04,VWS V14.01,2013-07-31 17:57:00,
2013-07-31 14:00:00,72.4,55.1,30.15,SSE,158,3.4,3.4,54,0.00,,,0.04,VWS V14.01,2013-07-31 18:00:00,
2013-07-31 14:02:00,72.1,56.7,30.12,NNW,338,1.3,1.3,58,0.00,,,0.04,VWS V14.01,2013-07-31 18:02:00,
2013-07-31 14:07:00,71.7,58.2,30.12,SSW,202,0.0,0.0,62,0.00,,,0.04,VWS V14.01,2013-07-31 18:07:00,
2013-07-31 14:12:00,71.0,57.6,30.12,WNW,292,1.6,1.6,62,0.00,,,0.04,VWS V14.01,2013-07-31 18:12:00,
2013-07-31 14:15:00,71.0,57.6,30.12,North,0,0.0,0.0,62,0.00,,,0.04,VWS V14.01,2013-07-31 18:15:00,
2013-07-31 14:17:00,71.2,58.6,30.12,ENE,68,1.3,1.3,64,0.00,,,0.04,VWS V14.01,2013-07-31 18:17:00,
2013-07-31 14:22:00,71.0,60.1,30.12,WNW,292,0.0,0.0,68,0.00,,,0.04,VWS V14.01,2013-07-31 18:22:00,
2013-07-31 14:27:00,71.0,60.9,30.12,North,0,1.1,1.1,70,0.00,,,0.04,VWS V14.01,2013-07-31 18:27:00,
2013-07-31 14:30:00,70.8,61.2,30.12,NNW,338,0.0,0.0,72,0.00,,,0.04,VWS V14.01,2013-07-31 18:30:00,
2013-07-31 14:32:00,70.8,61.2,30.12,NNE,22,0.0,0.0,72,0.00,,,0.04,VWS V14.01,2013-07-31 18:32:00,
2013-07-31 14:37:00,70.8,61.2,30.12,SSE,158,1.3,1.3,72,0.00,,,0.04,VWS V14.01,2013-07-31 18:37:00,
2013-07-31 14:42:00,70.8,58.7,30.12,ESE,112,1.1,1.1,66,0.00,,,0.04,VWS V14.01,2013-07-31 18:42:00,
2013-07-31 14:45:00,71.0,58.9,30.12,ESE,112,0.0,0.0,66,0.00,,,0.04,VWS V14.01,2013-07-31 18:45:00,
2013-07-31 14:47:00,71.0,58.9,30.09,SE,135,3.1,3.1,66,0.00,,,0.04,VWS V14.01,2013-07-31 18:47:00,
2013-07-31 14:52:00,71.3,58.8,30.09,NNE,22,1.6,1.6,64,0.00,,,0.04,VWS V14.01,2013-07-31 18:52:00,
2013-07-31 14:57:00,71.9,60.6,30.09,East,90,1.1,1.1,68,0.00,,,0.04,VWS V14.01,2013-07-31 18:57:00,
2013-07-31 15:00:00,71.9,58.4,30.09,NNW,338,2.9,2.9,62,0.00,,,0.04,VWS V14.01,2013-07-31 19:00:00,
2013-07-31 15:02:00,71.9,57.0,30.09,ESE,112,0.0,0.0,60,0.00,,,0.04,VWS V14.01,2013-07-31 19:02:00,
2013-07-31 15:07:00,72.2,55.9,30.09,ENE,68,0.0,0.0,56,0.00,,,0.04,VWS V14.01,2013-07-31 19:07:00,
2013-07-31 15:12:00,72.8,56.9,30.09,SSE,158,2.5,2.5,58,0.00,,,0.04,VWS V14.01,2013-07-31 19:12:00,
2013-07-31 15:15:00,73.0,56.6,30.09,NW,315,0.0,0.0,56,0.00,,,0.04,VWS V14.01,2013-07-31 19:15:00,
2013-07-31 15:17:00,73.3,56.5,30.06,SSE,158,4.0,4.0,56,0.00,,,0.04,VWS V14.01,2013-07-31 19:17:00,
2013-07-31 15:22:00,73.9,55.4,30.06,SSW,202,0.0,0.0,52,0.00,,,0.04,VWS V14.01,2013-07-31 19:22:00,
2013-07-31 15:27:00,74.2,57.3,30.06,ESE,112,0.0,0.0,56,0.00,,,0.04,VWS V14.01,2013-07-31 19:27:00,
2013-07-31 15:30:00,74.1,55.1,30.06,SSE,158,3.4,3.4,52,0.00,,,0.04,VWS V14.01,2013-07-31 19:30:00,
2013-07-31 15:32:00,74.2,55.2,30.09,SE,135,2.0,2.0,52,0.00,,,0.04,VWS V14.01,2013-07-31 19:32:00,
2013-07-31 15:37:00,74.1,55.6,30.09,SE,135,2.0,2.0,52,0.00,,,0.04,VWS V14.01,2013-07-31 19:37:00,
2013-07-31 15:42:00,73.9,54.9,30.09,SE,135,3.6,3.6,52,0.00,,,0.04,VWS V14.01,2013-07-31 19:42:00,
2013-07-31 15:45:00,73.9,54.9,30.09,SSE,158,2.7,2.7,52,0.00,,,0.04,VWS V14.01,2013-07-31 19:45:00,
2013-07-31 15:47:00,74.1,55.6,30.09,SE,135,3.1,3.1,52,0.00,,,0.04,VWS V14.01,2013-07-31 19:47:00,
2013-07-31 15:52:00,74.1,55.1,30.09,ESE,112,0.9,0.9,52,0.00,,,0.04,VWS V14.01,2013-07-31 19:52:00,
2013-07-31 15:57:00,73.9,55.4,30.09,SSW,202,0.0,0.0,52,0.00,,,0.04,VWS V14.01,2013-07-31 19:57:00,
2013-07-31 16:00:00,74.1,55.6,30.09,WSW,248,0.0,0.0,52,0.00,,,0.04,VWS V14.01,2013-07-31 20:00:00,
2013-07-31 16:02:00,73.9,55.9,30.09,West,270,2.0,2.0,54,0.00,,,0.04,VWS V14.01,2013-07-31 20:02:00,
2013-07-31 16:07:00,73.3,54.9,30.09,SE,135,1.6,1.6,52,0.00,,,0.04,VWS V14.01,2013-07-31 20:07:00,
2013-07-31 16:12:00,73.0,55.1,30.09,North,0,1.1,1.1,54,0.00,,,0.04,VWS V14.01,2013-07-31 20:12:00,
2013-07-31 16:15:00,72.8,54.9,30.09,SW,225,0.0,0.0,54,0.00,,,0.04,VWS V14.01,2013-07-31 20:15:00,
2013-07-31 16:17:00,72.8,54.4,30.09,SE,135,1.3,1.3,52,0.00,,,0.04,VWS V14.01,2013-07-31 20:17:00,
2013-07-31 16:22:00,72.8,54.4,30.09,SSW,202,1.3,1.3,52,0.00,,,0.04,VWS V14.01,2013-07-31 20:22:00,
2013-07-31 16:27:00,72.8,53.9,30.09,ESE,112,1.6,1.6,52,0.00,,,0.04,VWS V14.01,2013-07-31 20:27:00,
2013-07-31 16:30:00,73.0,54.6,30.09,ESE,112,2.5,2.5,52,0.00,,,0.04,VWS V14.01,2013-07-31 20:30:00,
2013-07-31 16:32:00,73.2,55.8,30.09,East,90,0.0,0.0,54,0.00,,,0.04,VWS V14.01,2013-07-31 20:32:00,
2013-07-31 16:37:00,73.2,54.8,30.09,ESE,112,1.3,1.3,52,0.00,,,0.04,VWS V14.01,2013-07-31 20:37:00,
2013-07-31 16:42:00,73.2,54.2,30.09,WNW,292,1.3,1.3,52,0.00,,,0.04,VWS V14.01,2013-07-31 20:42:00,
2013-07-31 16:45:00,73.7,54.7,30.09,SE,135,3.6,3.6,52,0.00,,,0.04,VWS V14.01,2013-07-31 20:45:00,
2013-07-31 16:47:00,73.9,54.9,30.06,East,90,1.1,1.1,52,0.00,,,0.04,VWS V14.01,2013-07-31 20:47:00,
2013-07-31 16:52:00,74.4,55.4,30.06,NNW,338,1.1,1.1,52,0.00,,,0.04,VWS V14.01,2013-07-31 20:52:00,
2013-07-31 16:57:00,74.8,54.6,30.06,ENE,68,2.9,2.9,50,0.00,,,0.04,VWS V14.01,2013-07-31 20:57:00,
2013-07-31 17:00:00,74.9,54.8,30.06,WNW,292,0.9,0.9,50,0.00,,,0.04,VWS V14.01,2013-07-31 21:00:00,
2013-07-31 17:02:00,75.1,56.6,30.06,NE,45,0.0,0.0,52,0.00,,,0.04,VWS V14.01,2013-07-31 21:02:00,
2013-07-31 17:07:00,75.3,55.1,30.06,South,180,2.0,2.0,50,0.00,,,0.04,VWS V14.01,2013-07-31 21:07:00,
2013-07-31 17:12:00,75.5,54.2,30.06,North,0,0.9,0.9,48,0.00,,,0.04,VWS V14.01,2013-07-31 21:12:00,
2013-07-31 17:15:00,75.7,54.9,30.06,NE,45,0.0,0.0,48,0.00,,,0.04,VWS V14.01,2013-07-31 21:15:00,
2013-07-31 17:18:00,75.7,55.5,30.06,North,0,0.0,0.0,50,0.00,,,0.04,VWS V14.01,2013-07-31 21:18:00,
2013-07-31 17:23:00,74.9,56.4,30.06,WSW,248,0.0,0.0,52,0.00,,,0.04,VWS V14.01,2013-07-31 21:23:00,
2013-07-31 17:28:00,74.9,56.4,30.06,WSW,248,0.0,0.0,52,0.00,,,0.04,VWS V14.01,2013-07-31 21:28:00,
2013-07-31 17:30:00,74.8,56.8,30.06,WSW,248,0.0,0.0,54,0.00,,,0.04,VWS V14.01,2013-07-31 21:30:00,
2013-07-31 17:33:00,74.2,56.8,30.06,WNW,292,1.1,1.1,54,0.00,,,0.04,VWS V14.01,2013-07-31 21:33:00,
2013-07-31 17:38:00,73.7,57.3,30.06,NNW,338,0.0,0.0,56,0.00,,,0.04,VWS V14.01,2013-07-31 21:38:00,
2013-07-31 17:43:00,73.3,58.4,30.06,NNW,338,0.0,0.0,60,0.00,,,0.04,VWS V14.01,2013-07-31 21:43:00,
2013-07-31 17:45:00,73.3,57.4,30.06,NNW,338,0.0,0.0,58,0.00,,,0.04,VWS V14.01,2013-07-31 21:45:00,
2013-07-31 17:48:00,73.3,57.4,30.06,WNW,292,0.0,0.0,58,0.00,,,0.04,VWS V14.01,2013-07-31 21:48:00,
2013-07-31 17:53:00,73.3,57.0,30.06,SSW,202,0.0,0.0,56,0.00,,,0.04,VWS V14.01,2013-07-31 21:53:00,
2013-07-31 17:58:00,73.5,55.6,30.06,SE,135,1.6,1.6,54,0.00,,,0.04,VWS V14.01,2013-07-31 21:58:00,
2013-07-31 18:00:00,73.5,55.1,30.06,SSE,158,0.0,0.0,52,0.00,,,0.04,VWS V14.01,2013-07-31 22:00:00,
2013-07-31 18:03:00,73.7,55.3,30.03,South,180,0.0,0.0,52,0.00,,,0.04,VWS V14.01,2013-07-31 22:03:00,
2013-07-31 18:08:00,73.9,55.9,30.03,South,180,0.0,0.0,54,0.00,,,0.04,VWS V14.01,2013-07-31 22:08:00,
2013-07-31 18:13:00,73.7,55.3,30.03,WNW,292,0.0,0.0,52,0.00,,,0.04,VWS V14.01,2013-07-31 22:13:00,
2013-07-31 18:18:00,73.7,55.3,30.00,WNW,292,0.0,0.0,52,0.00,,,0.04,VWS V14.01,2013-07-31 22:18:00,
2013-07-31 18:23:00,73.9,55.4,30.00,WNW,292,0.0,0.0,52,0.00,,,0.04,VWS V14.01,2013-07-31 22:23:00,
2013-07-31 18:28:00,73.7,55.8,30.00,WNW,292,0.0,0.0,54,0.00,,,0.04,VWS V14.01,2013-07-31 22:28:00,
2013-07-31 18:30:00,73.5,55.6,30.00,WNW,292,0.0,0.0,54,0.00,,,0.04,VWS V14.01,2013-07-31 22:30:00,
2013-07-31 18:33:00,73.5,57.1,30.00,WNW,292,0.0,0.0,56,0.00,,,0.04,VWS V14.01,2013-07-31 22:33:00,
2013-07-31 18:38:00,73.5,57.1,30.03,WNW,292,0.0,0.0,56,0.00,,,0.04,VWS V14.01,2013-07-31 22:38:00,
2013-07-31 18:43:00,73.5,56.6,30.03,WNW,292,0.0,0.0,56,0.00,,,0.04,VWS V14.01,2013-07-31 22:43:00,
2013-07-31 18:45:00,73.5,55.6,30.03,South,180,0.0,0.0,54,0.00,,,0.04,VWS V14.01,2013-07-31 22:45:00,
2013-07-31 18:48:00,73.7,56.8,30.00,WSW,248,0.0,0.0,56,0.00,,,0.04,VWS V14.01,2013-07-31 22:48:00,
2013-07-31 18:53:00,74.1,55.6,30.00,West,270,0.0,0.0,52,0.00,,,0.04,VWS V14.01,2013-07-31 22:53:00,
2013-07-31 18:58:00,74.2,55.8,30.00,WSW,248,1.1,1.1,52,0.00,,,0.04,VWS V14.01,2013-07-31 22:58:00,
2013-07-31 19:00:00,74.2,55.8,30.00,WSW,248,1.1,1.1,52,0.00,,,0.04,VWS V14.01,2013-07-31 23:00:00,
2013-07-31 19:03:00,74.4,56.4,30.03,WNW,292,0.0,0.0,54,0.00,,,0.04,VWS V14.01,2013-07-31 23:03:00,
2013-07-31 19:08:00,74.4,55.9,30.03,WNW,292,0.0,0.0,52,0.00,,,0.04,VWS V14.01,2013-07-31 23:08:00,
2013-07-31 19:13:00,74.1,56.1,30.03,WSW,248,0.0,0.0,54,0.00,,,0.04,VWS V14.01,2013-07-31 23:13:00,
2013-07-31 19:15:00,74.1,56.1,30.03,West,270,0.0,0.0,54,0.00,,,0.04,VWS V14.01,2013-07-31 23:15:00,
2013-07-31 19:18:00,73.3,56.0,30.03,WNW,292,0.0,0.0,54,0.00,,,0.04,VWS V14.01,2013-07-31 23:18:00,
2013-07-31 19:23:00,73.0,57.1,30.03,WSW,248,0.0,0.0,58,0.00,,,0.04,VWS V14.01,2013-07-31 23:23:00,
2013-07-31 19:28:00,72.6,58.2,30.03,West,270,0.0,0.0,60,0.00,,,0.04,VWS V14.01,2013-07-31 23:28:00,
2013-07-31 19:30:00,72.6,58.6,30.03,WSW,248,0.0,0.0,62,0.00,,,0.04,VWS V14.01,2013-07-31 23:30:00,
2013-07-31 19:33:00,72.4,59.8,30.03,WSW,248,0.0,0.0,64,0.00,,,0.04,VWS V14.01,2013-07-31 23:33:00,
2013-07-31 19:38:00,72.4,59.8,30.03,WSW,248,0.0,0.0,64,0.00,,,0.04,VWS V14.01,2013-07-31 23:38:00,
2013-07-31 19:43:00,72.1,59.9,30.03,WSW,248,0.0,0.0,66,0.00,,,0.04,VWS V14.01,2013-07-31 23:43:00,
2013-07-31 19:45:00,72.1,59.9,30.03,WSW,248,0.0,0.0,66,0.00,,,0.04,VWS V14.01,2013-07-31 23:45:00,
2013-07-31 19:48:00,72.1,59.5,30.06,WSW,248,0.0,0.0,64,0.00,,,0.04,VWS V14.01,2013-07-31 23:48:00,
2013-07-31 19:53:00,71.9,60.1,30.06,WSW,248,0.0,0.0,66,0.00,,,0.04,VWS V14.01,2013-07-31 23:53:00,
2013-07-31 19:58:00,71.5,61.0,30.06,SSW,202,0.0,0.0,70,0.00,,,0.04,VWS V14.01,2013-07-31 23:58:00,
2013-07-31 20:00:00,71.5,61.0,30.06,SSW,202,0.0,0.0,70,0.00,,,0.04,VWS V14.01,2013-08-01 00:00:00,
2013-07-31 20:03:00,71.5,61.4,30.03,SSW,202,0.0,0.0,70,0.00,,,0.04,VWS V14.01,2013-08-01 00:03:00,
2013-07-31 20:08:00,71.5,61.0,30.03,SSW,202,0.0,0.0,70,0.00,,,0.04,VWS V14.01,2013-08-01 00:08:00,
2013-07-31 20:13:00,71.3,60.5,30.03,SSW,202,0.0,0.0,68,0.00,,,0.04,VWS V14.01,2013-08-01 00:13:00,
2013-07-31 20:15:00,71.3,60.5,30.03,SSW,202,0.0,0.0,68,0.00,,,0.04,VWS V14.01,2013-08-01 00:15:00,
2013-07-31 20:18:00,71.3,61.7,30.06,SSW,202,0.0,0.0,72,0.00,,,0.04,VWS V14.01,2013-08-01 00:18:00,
2013-07-31 20:23:00,71.2,62.3,30.06,SSW,202,0.0,0.0,74,0.00,,,0.04,VWS V14.01,2013-08-01 00:23:00,
2013-07-31 20:28:00,71.0,62.9,30.06,SSW,202,0.0,0.0,76,0.00,,,0.04,VWS V14.01,2013-08-01 00:28:00,
2013-07-31 20:30:00,71.0,62.9,30.06,SSW,202,0.0,0.0,76,0.00,,,0.04,VWS V14.01,2013-08-01 00:30:00,
2013-07-31 20:33:00,70.8,62.3,30.06,SSW,202,0.0,0.0,74,0.00,,,0.04,VWS V14.01,2013-08-01 00:33:00,
2013-07-31 20:38:00,70.6,62.1,30.06,SSE,158,0.0,0.0,74,0.00,,,0.04,VWS V14.01,2013-08-01 00:38:00,
2013-07-31 20:43:00,70.6,63.3,30.06,South,180,0.0,0.0,78,0.00,,,0.04,VWS V14.01,2013-08-01 00:43:00,
2013-07-31 20:45:00,70.6,63.3,30.06,South,180,0.0,0.0,78,0.00,,,0.04,VWS V14.01,2013-08-01 00:45:00,
2013-07-31 20:48:00,70.4,63.1,30.06,South,180,0.0,0.0,78,0.00,,,0.04,VWS V14.01,2013-08-01 00:48:00,
2013-07-31 20:53:00,70.3,63.6,30.06,South,180,0.0,0.0,80,0.00,,,0.04,VWS V14.01,2013-08-01 00:53:00,
2013-07-31 20:58:00,70.3,63.6,30.06,South,180,0.0,0.0,80,0.00,,,0.04,VWS V14.01,2013-08-01 00:58:00,
2013-07-31 21:00:00,70.3,63.6,30.06,SSW,202,0.0,0.0,80,0.00,,,0.04,VWS V14.01,2013-08-01 01:00:00,
2013-07-31 21:03:00,70.3,64.0,30.06,SSW,202,0.0,0.0,80,0.00,,,0.04,VWS V14.01,2013-08-01 01:03:00,
2013-07-31 21:08:00,70.1,63.5,30.06,SSW,202,0.0,0.0,80,0.00,,,0.04,VWS V14.01,2013-08-01 01:08:00,
2013-07-31 21:13:00,70.1,63.5,30.06,SSW,202,0.0,0.0,80,0.00,,,0.04,VWS V14.01,2013-08-01 01:13:00,
2013-07-31 21:15:00,69.9,63.3,30.06,South,180,0.0,0.0,80,0.00,,,0.04,VWS V14.01,2013-08-01 01:15:00,
2013-07-31 21:18:00,69.9,64.0,30.06,SSW,202,0.0,0.0,82,0.00,,,0.04,VWS V14.01,2013-08-01 01:18:00,
2013-07-31 21:23:00,69.9,64.0,30.06,South,180,0.0,0.0,82,0.00,,,0.04,VWS V14.01,2013-08-01 01:23:00,
2013-07-31 21:28:00,69.7,63.5,30.06,South,180,0.0,0.0,80,0.00,,,0.04,VWS V14.01,2013-08-01 01:28:00,
2013-07-31 21:30:00,69.7,63.5,30.06,South,180,0.0,0.0,80,0.00,,,0.04,VWS V14.01,2013-08-01 01:30:00,
2013-07-31 21:33:00,69.6,63.7,30.06,South,180,0.0,0.0,82,0.00,,,0.04,VWS V14.01,2013-08-01 01:33:00,
2013-07-31 21:38:00,69.6,64.0,30.06,South,180,0.0,0.0,82,0.00,,,0.04,VWS V14.01,2013-08-01 01:38:00,
2013-07-31 21:43:00,69.6,64.0,30.06,South,180,0.0,0.0,82,0.00,,,0.04,VWS V14.01,2013-08-01 01:43:00,
2013-07-31 21:45:00,69.6,64.0,30.06,South,180,0.0,0.0,82,0.00,,,0.04,VWS V14.01,2013-08-01 01:45:00,
2013-07-31 21:48:00,69.4,64.2,30.06,South,180,0.0,0.0,84,0.00,,,0.04,VWS V14.01,2013-08-01 01:48:00,
2013-07-31 21:53:00,69.2,64.7,30.06,South,180,0.0,0.0,86,0.00,,,0.04,VWS V14.01,2013-08-01 01:53:00,
2013-07-31 21:58:00,69.2,65.0,30.06,South,180,0.0,0.0,86,0.00,,,0.04,VWS V14.01,2013-08-01 01:58:00,
2013-07-31 22:00:00,69.2,65.3,30.06,South,180,0.0,0.0,88,0.00,,,0.04,VWS V14.01,2013-08-01 02:00:00,
2013-07-31 22:03:00,69.0,65.2,30.06,South,180,0.0,0.0,88,0.00,,,0.04,VWS V14.01,2013-08-01 02:03:00,
2013-07-31 22:08:00,69.2,65.7,30.06,South,180,0.0,0.0,88,0.00,,,0.04,VWS V14.01,2013-08-01 02:08:00,
2013-07-31 22:13:00,69.0,65.8,30.06,South,180,0.0,0.0,90,0.00,,,0.04,VWS V14.01,2013-08-01 02:13:00,
2013-07-31 22:15:00,69.0,65.8,30.06,South,180,0.0,0.0,90,0.00,,,0.04,VWS V14.01,2013-08-01 02:15:00,
2013-07-31 22:18:00,69.0,65.8,30.06,South,180,0.0,0.0,90,0.00,,,0.04,VWS V14.01,2013-08-01 02:18:00,
2013-07-31 22:23:00,69.0,65.8,30.06,South,180,0.0,0.0,90,0.00,,,0.04,VWS V14.01,2013-08-01 02:23:00,
2013-07-31 22:28:00,69.0,65.8,30.06,South,180,0.0,0.0,90,0.00,,,0.04,VWS V14.01,2013-08-01 02:28:00,
2013-07-31 22:30:00,69.0,66.1,30.06,South,180,0.0,0.0,90,0.00,,,0.04,VWS V14.01,2013-08-01 02:30:00,
2013-07-31 22:33:00,69.0,66.4,30.06,South,180,0.0,0.0,92,0.00,,,0.04,VWS V14.01,2013-08-01 02:33:00,
2013-07-31 22:38:00,68.8,65.9,30.06,South,180,0.0,0.0,90,0.00,,,0.04,VWS V14.01,2013-08-01 02:38:00,
2013-07-31 22:43:00,68.8,65.9,30.06,South,180,0.0,0.0,90,0.00,,,0.04,VWS V14.01,2013-08-01 02:43:00,
2013-07-31 22:45:00,68.8,65.9,30.06,South,180,0.0,0.0,90,0.00,,,0.04,VWS V14.01,2013-08-01 02:45:00,
2013-07-31 22:48:00,68.8,66.3,30.06,South,180,0.0,0.0,92,0.00,,,0.04,VWS V14.01,2013-08-01 02:48:00,
2013-07-31 22:53:00,68.8,66.3,30.06,South,180,0.0,0.0,92,0.00,,,0.04,VWS V14.01,2013-08-01 02:53:00,
2013-07-31 22:58:00,68.8,66.3,30.06,South,180,0.0,0.0,92,0.00,,,0.04,VWS V14.01,2013-08-01 02:58:00,
2013-07-31 23:03:00,68.8,66.3,30.06,South,180,0.0,0.0,92,0.00,,,0.04,VWS V14.01,2013-08-01 03:03:00,
2013-07-31 23:08:00,68.8,66.6,30.06,South,180,0.0,0.0,92,0.00,,,0.04,VWS V14.01,2013-08-01 03:08:00,
2013-07-31 23:13:00,68.7,66.4,30.06,South,180,0.0,0.0,92,0.00,,,0.04,VWS V14.01,2013-08-01 03:13:00,
2013-07-31 23:15:00,68.7,66.7,30.06,South,180,0.0,0.0,94,0.00,,,0.04,VWS V14.01,2013-08-01 03:15:00,
2013-07-31 23:18:00,68.7,66.7,30.06,South,180,0.0,0.0,94,0.00,,,0.04,VWS V14.01,2013-08-01 03:18:00,
2013-07-31 23:23:00,68.7,66.7,30.06,South,180,0.0,0.0,94,0.00,,,0.04,VWS V14.01,2013-08-01 03:23:00,
2013-07-31 23:28:00,68.8,66.9,30.06,South,180,0.0,0.0,94,0.00,,,0.04,VWS V14.01,2013-08-01 03:28:00,
2013-07-31 23:30:00,68.7,66.7,30.06,South,180,0.0,0.0,94,0.00,,,0.04,VWS V14.01,2013-08-01 03:30:00,
2013-07-31 23:33:00,68.7,66.7,30.06,South,180,0.0,0.0,94,0.00,,,0.04,VWS V14.01,2013-08-01 03:33:00,
2013-07-31 23:38:00,68.8,67.2,30.06,South,180,0.0,0.0,94,0.00,,,0.04,VWS V14.01,2013-08-01 03:38:00,
2013-07-31 23:43:00,68.8,67.2,30.06,South,180,0.0,0.0,94,0.00,,,0.04,VWS V14.01,2013-08-01 03:43:00,
2013-07-31 23:45:00,68.8,67.2,30.06,South,180,0.0,0.0,94,0.00,,,0.04,VWS V14.01,2013-08-01 03:45:00,
2013-07-31 23:48:00,68.8,66.9,30.06,South,180,0.0,0.0,94,0.00,,,0.04,VWS V14.01,2013-08-01 03:48:00,
2013-07-31 23:53:00,68.8,67.2,30.06,South,180,0.0,0.0,94,0.00,,,0.04,VWS V14.01,2013-08-01 03:53:00,
2013-07-31 23:58:00,68.7,67.0,30.06,South,180,0.0,0.0,94,0.00,,,0.04,VWS V14.01,2013-08-01 03:58:00,